DateTimeUTC,F1_A11,F1_S11,BsB_S11,BsG_S11,BsR_S11,BbsB_S11,BbsG_S11,BbsR_S11,BaB_A11,BaG_A11,BaR_A11,Tu_S11,T_S11,Uu_S11,U_S11,P_S11,T1_A11
2021-08-21T19:00:00Z,00000200,20000000,,,,,,,-000.23,-000.57,-000.50,20.0,26.6,10.1,06.8,0677.7,31.1
2021-08-21T19:01:00Z,00000200,20000000,,,,,,,0000.21,0000.25,0000.41,20.0,26.6,10.0,06.7,0677.7,31.1
2021-08-21T19:02:00Z,00000200,20000000,,,,,,,0000.30,0000.37,-000.01,20.0,26.6,10.0,06.7,0677.7,31.1
2021-08-21T19:03:00Z,00000200,60000000,,,,,,,0000.93,0000.43,0000.69,20.0,26.7,10.0,06.7,0677.7,31.1
2021-08-21T19:04:00Z,00000200,40000000,0000.35,0001.34,0001.14,-000.42,0000.22,0000.00,0000.32,0000.68,0000.26,20.0,26.5,10.6,07.2,0678.7,31.1
2021-08-21T19:05:00Z,00000200,00000000,0002.01,0001.58,0000.90,0000.09,0000.29,-000.29,0000.62,0000.29,-000.19,20.1,26.5,10.5,07.1,0678.8,31.1
2021-08-21T19:06:00Z,00000200,00000000,0001.44,0001.63,0001.31,0000.43,0000.03,-000.16,0000.33,0000.40,0000.53,20.1,26.4,10.6,07.2,0678.8,31.1
2021-08-21T19:07:00Z,00000200,00000000,0002.23,0001.38,0000.94,0000.04,-000.20,0000.16,0000.29,0000.77,0000.64,20.1,26.4,10.6,07.2,0678.8,31.1
2021-08-21T19:08:00Z,00000200,00000000,0001.64,0001.25,0001.06,-000.14,0000.16,0000.18,0000.51,0000.31,0000.18,20.1,26.4,10.6,07.2,0678.8,31.1
2021-08-21T19:09:00Z,00000200,00000000,0001.78,0001.73,0001.53,-000.09,0000.06,0000.11,0000.24,0000.06,0000.24,20.1,26.4,10.5,07.2,0678.8,31.1
2021-08-21T19:10:00Z,00000200,00000000,0002.50,0002.57,0001.84,-000.15,0000.21,0000.05,-000.29,-000.19,0000.05,20.1,26.4,10.0,06.8,0678.8,31.1
2021-08-21T19:11:00Z,00000200,00000000,0002.95,0002.40,0001.84,-000.01,0000.10,0000.04,0001.11,0000.53,0000.23,20.1,26.4,09.7,06.6,0678.8,31.1
2021-08-21T19:12:00Z,00000200,00000000,0003.48,0002.40,0001.67,0000.23,0000.05,0000.09,0001.28,0001.58,0001.14,20.1,26.4,09.9,06.7,0678.8,31.1
2021-08-21T19:13:00Z,00000200,00000000,0001.64,0001.92,0001.04,0000.27,0000.17,0000.01,0000.78,0000.74,0000.72,20.1,26.4,10.4,07.1,0678.8,31.1
2021-08-21T19:14:00Z,00000200,00000000,0000.92,0001.57,0000.87,-000.74,0000.17,-000.34,0000.26,0000.21,0000.23,20.1,26.4,10.6,07.3,0678.8,31.1
2021-08-21T19:15:00Z,00000200,00000000,0001.57,0001.52,0001.48,-000.01,-000.20,-000.10,0000.91,0000.86,0000.44,20.1,26.4,10.6,07.3,0678.8,31.1
2021-08-21T19:16:00Z,00000200,00000000,0001.57,0001.39,0001.08,-000.28,-000.09,0000.38,-000.16,0000.07,0000.24,20.1,26.4,10.5,07.2,0678.8,31.1
2021-08-21T19:17:00Z,00000200,00000000,0001.53,0001.58,0001.25,0000.44,-000.03,0000.37,0000.71,0000.38,0000.04,20.1,26.4,10.5,07.2,0678.8,31.1
2021-08-21T19:18:00Z,00000200,00000000,0002.20,0001.46,0001.28,0000.33,-000.08,0000.41,0000.19,0000.44,0000.55,20.1,26.4,10.6,07.2,0678.9,31.1
2021-08-21T19:19:00Z,00000200,00000000,0001.05,0000.98,0000.96,0000.19,-000.07,0000.09,0000.59,0000.25,0000.61,20.1,26.4,10.5,07.2,0678.9,31.1
2021-08-21T19:20:00Z,00000200,00000000,0002.40,0001.11,0001.04,0000.43,0000.16,-000.03,0000.41,0000.71,0000.13,20.1,26.4,10.5,07.2,0678.9,31.1
2021-08-21T19:21:00Z,00000200,00000000,0001.49,0001.41,0000.86,-000.35,0000.15,-000.06,0000.57,0000.40,0000.22,20.1,26.4,10.6,07.2,0678.9,31.1
2021-08-21T19:22:00Z,00000200,00000000,0001.92,0001.39,0000.95,0000.00,-000.15,0000.24,0000.28,0000.43,0000.64,20.1,26.4,10.5,07.2,0678.9,31.1
2021-08-21T19:23:00Z,00000200,00000000,0001.81,0001.49,0000.94,0000.60,-000.00,-000.34,0000.52,0000.32,0000.37,20.1,26.4,10.5,07.2,0678.8,31.1
2021-08-21T19:24:00Z,00000200,00000000,0001.75,0001.41,0001.14,-000.25,0000.30,-000.15,0000.57,0000.48,0000.17,20.1,26.4,10.5,07.2,0678.8,31.1
2021-08-21T19:25:00Z,00000200,00000000,0001.38,0001.37,0001.13,-000.28,0000.06,0000.08,0000.36,0000.16,0000.27,20.1,26.4,10.6,07.2,0678.8,31.1
2021-08-21T19:26:00Z,00000200,00000000,0002.09,0001.58,0000.82,0000.07,0000.47,0000.05,0000.52,0000.46,0000.37,20.1,26.4,10.5,07.2,0678.8,31.1
2021-08-21T19:27:00Z,00000200,00000000,0001.70,0001.33,0001.33,0000.05,-000.03,0000.29,0000.50,0000.47,0000.25,20.1,26.4,10.5,07.2,0678.8,31.1
2021-08-21T19:28:00Z,00000200,00000000,0001.98,0001.08,0001.06,-000.41,0000.08,0000.14,0000.01,0000.27,0000.33,20.1,26.4,10.5,07.2,0678.8,31.1
2021-08-21T19:29:00Z,00000200,00000000,0001.82,0000.91,0000.75,0000.17,0000.10,-000.10,0000.37,-000.26,0000.22,20.1,26.4,10.3,07.1,0678.8,31.1
2021-08-21T19:30:00Z,00000200,00000000,0002.61,0001.29,0001.14,0000.56,-000.27,-000.04,0000.30,0000.91,0000.16,20.1,26.4,10.4,07.1,0678.8,31.1
2021-08-21T19:31:00Z,00000200,00000000,0001.95,0001.49,0001.11,-000.10,0000.29,-000.04,0000.28,0000.29,0000.33,20.1,26.4,10.2,07.0,0678.8,31.1
2021-08-21T19:32:00Z,00000200,00000000,0000.92,0001.18,0000.94,0000.17,0000.10,0000.49,0000.37,0000.13,0000.26,20.1,26.4,10.1,06.9,0678.7,31.1
2021-08-21T19:33:00Z,00000200,00000000,0001.16,0001.28,0001.31,-000.09,0000.21,0000.27,0000.31,0000.40,0000.18,20.0,26.3,10.1,06.9,0678.8,31.1
2021-08-21T19:34:00Z,00000200,00000000,0002.24,0001.35,0000.94,0000.17,-000.04,0000.05,0000.40,0000.28,0000.41,20.1,26.3,10.2,07.0,0678.8,31.1
2021-08-21T19:35:00Z,00000200,00000000,0001.53,0001.10,0000.95,-000.20,0000.27,-000.25,0000.58,0000.44,0000.23,20.1,26.3,10.1,06.9,0678.7,31.1
2021-08-21T19:36:00Z,00000200,00000000,0000.57,0001.21,0001.00,0000.12,-000.02,0000.10,0000.45,0000.26,0000.31,20.1,26.3,10.1,06.9,0678.8,31.1
2021-08-21T19:37:00Z,00000200,00000000,0001.55,0001.07,0001.18,-000.33,0000.01,0000.13,0000.31,-000.00,0000.15,20.1,26.3,10.1,06.9,0678.8,31.1
2021-08-21T19:38:00Z,00000200,00000000,0001.98,0001.01,0000.94,-000.21,-000.15,-000.04,0000.21,0000.71,0000.51,20.0,26.3,10.0,06.8,0678.8,31.1
2021-08-21T19:39:00Z,00000200,00000000,0001.63,0001.45,0000.96,-000.55,0000.20,-000.08,0000.55,0000.52,0000.38,20.0,26.3,09.9,06.8,0678.9,31.1
2021-08-21T19:40:00Z,00000200,00000000,0001.72,0001.26,0000.97,0000.04,0000.02,-000.08,0000.29,0000.43,0000.17,20.0,26.3,10.1,06.9,0678.9,31.1
2021-08-21T19:41:00Z,00000200,00000000,0001.56,0001.21,0001.13,-000.62,-000.12,0000.06,0000.50,0000.33,0000.34,20.0,26.3,10.1,06.9,0678.9,31.1
2021-08-21T19:42:00Z,00000200,00000000,0001.65,0001.37,0000.86,-000.20,0000.27,0000.01,0000.49,0000.32,0000.19,20.0,26.3,10.1,06.9,0678.9,31.1
2021-08-21T19:43:00Z,00000200,00000000,0002.13,0001.23,0001.13,-000.05,0000.19,0000.24,0000.67,0000.56,0000.30,20.0,26.3,10.1,06.9,0678.9,31.1
2021-08-21T19:44:00Z,00000200,00000000,0001.27,0000.90,0000.94,0000.67,-000.04,0000.10,0000.08,0000.20,0000.28,20.0,26.3,10.1,06.9,0678.9,31.1
2021-08-21T19:45:00Z,00000200,00000000,0001.47,0001.27,0000.81,0000.47,-000.36,-000.16,0000.69,0000.59,0000.58,20.0,26.3,10.2,06.9,0678.9,31.1
2021-08-21T19:46:00Z,00000200,00000000,0001.58,0001.38,0000.80,0000.21,-000.09,0000.03,0000.08,0000.35,0000.13,20.0,26.3,10.2,07.0,0678.9,31.1
2021-08-21T19:47:00Z,00000200,00000000,0001.56,0001.15,0000.99,0000.11,0000.30,0000.12,0000.57,0000.31,0000.50,20.0,26.3,10.3,07.0,0678.9,31.1
2021-08-21T19:48:00Z,00000200,00000000,0001.50,0000.98,0001.08,0000.02,-000.02,0000.24,0000.45,0000.39,0000.07,20.0,26.3,10.2,07.0,0678.9,31.1
2021-08-21T19:49:00Z,00000200,00000000,0001.69,0001.06,0000.69,-000.04,-000.01,0000.00,0000.45,0000.35,0000.64,20.0,26.3,10.3,07.0,0678.9,31.1
2021-08-21T19:50:00Z,00000200,00000000,0001.42,0000.96,0000.71,0000.46,0000.39,0000.04,0000.50,0000.51,0000.64,20.0,26.3,10.3,07.0,0678.9,31.0
2021-08-21T19:51:00Z,00000200,00000000,0002.24,0001.16,0000.91,0000.68,-000.11,-000.07,0000.41,0000.60,-000.03,20.0,26.2,10.3,07.0,0678.9,31.0
2021-08-21T19:52:00Z,00000200,00000000,0001.38,0000.95,0001.06,0000.44,0000.18,0000.02,0000.64,0000.77,0000.45,19.9,26.2,10.2,07.0,0678.9,31.0
2021-08-21T19:53:00Z,00000200,00000000,0001.42,0000.98,0001.06,0000.09,-000.11,0000.39,0000.64,0000.43,0000.19,19.9,26.2,10.3,07.0,0678.9,31.0
2021-08-21T19:54:00Z,00000200,00000000,0001.08,0001.36,0000.85,-000.07,0000.18,0000.30,0000.31,0000.22,0000.73,19.9,26.2,10.4,07.1,0678.9,31.0
2021-08-21T19:55:00Z,00000200,00000000,0002.05,0001.49,0001.08,0000.31,0000.00,0000.30,0000.03,0000.13,-000.38,19.9,26.1,10.4,07.1,0678.9,31.0
2021-08-21T19:56:00Z,00000200,00000000,0001.52,0001.00,0000.55,-000.37,-000.09,-000.09,0000.39,0000.17,0000.36,19.8,26.1,10.3,07.1,0678.9,31.0
2021-08-21T19:57:00Z,00000200,40000000,,,,,,,0000.13,0000.16,0000.28,19.9,26.2,10.3,07.0,0678.8,31.0
2021-08-21T19:58:00Z,00000200,60000000,,,,,,,-000.02,-000.16,-000.12,19.6,26.2,10.4,07.0,0677.9,31.0
2021-08-21T19:59:00Z,00000200,20000000,,,,,,,-000.04,0000.19,0000.07,19.6,26.3,10.2,06.8,0677.9,31.0
